Location: Unspecified
(0.0000°N, 0.0000°E)
Time: 17:32:12
(UTC+00:00)

Vanguard 3 - Pass Details

Date: 08 February 2023
Orbit: 509 x 3249 km, 33.3° (Epoch: 20 March)

Event Time Altitude Azimuth Distance (km) Brightness Sun altitude
Rises 01:17:48 0° 305° (NW) 6,624 - -68.2°
Reaches altitude 10° 01:21:50 10° 305° (NW) 5,828 - -67.5°
Maximum altitude 01:41:27 85° 218° (SW) 3,225 - -63.7°
Exits shadow 01:49:03 49° 133° (SE) 3,645 10.3 -62.1°
Drops below altitude 10° 01:59:06 10° 129° (SE) 5,322 11.6 -60.0°
Sets 02:02:36 0° 128° (SE) 6,052 12.1 -59.2°
